Location: Bioucas
(39.5691°N, 8.2561°W)
Time: 22:23:47
(UTC+00:00)

Daily predictions for brighter satellites

Satellite Brightness Start Highest point End
(mag) Time Altitude Azimuth Time Altitude Azimuth Time Altitude Azimuth
Cosmos 1782 3.5 17:30:41 10° SSW 17:34:38 59° W 17:38:35 10° N
Cosmos 1862 Rocket 4.4 17:33:13 10° SSE 17:36:59 30° E 17:40:48 10° NNE
ERBS 2.7 17:35:47 10° NNW 17:38:58 41° NE 17:42:10 10° ESE
Cosmos 1315 Rocket 3.2 17:35:48 10° SSW 17:39:43 69° W 17:43:44 10° N
CZ-4B R/B 3.8 17:34:34 10° S 17:39:48 61° WSW 17:45:07 10° NNW
Okean-O 3.5 17:38:00 10° SE 17:41:43 27° ENE 17:45:26 10° NNE
Cosmos 1346 Rocket 2.9 17:41:11 10° N 17:45:09 82° W 17:49:09 10° S
Meteor 2-6 Rocket 4.1 17:40:39 10° S 17:46:01 81° E 17:51:26 10° NNE
Cosmos 371 Rocket 4.3 17:44:30 10° NNW 17:49:15 52° WSW 17:53:59 10° S
AQUARIUS 4.2 17:46:19 10° SSE 17:50:43 56° ENE 17:55:08 10° N
OAO 2 Rocket 4.5 17:46:17 10° SW 17:50:48 34° SSE 17:55:24 10° E
USA 215 4.4 17:45:41 10° NE 17:51:25 34° NNW 17:57:08 10° W
CENTAUR R/B 3.6 17:43:56 10° NW 17:52:08 73° WSW 18:00:49 10° SSE
Cosmos 1707 Rocket 3.9 17:48:29 10° SSW 17:52:55 71° W 17:57:24 10° N
Envisat 3.6 17:48:47 10° SE 17:53:20 35° ENE 17:57:55 10° N
Cosmos 2279 Rocket 4.1 17:47:15 10° N 17:53:33 89° E 17:59:49 10° S
Cosmos 1666 4.3 17:51:54 10° NE 17:54:02 14° ENE 17:56:09 10° ESE
Cosmos 2278 Rocket 2.7 17:51:27 10° N 17:56:42 37° ENE 18:01:54 10° SE
Meteor 1-10 Rocket 4.2 17:52:05 10° S 17:57:37 89° E 18:03:13 10° N
Cosmos 2360 Rocket 4.2 17:55:42 10° WSW 18:00:10 23° NW 18:04:40 10° N
BREEZE-M DEB (TANK) 3.4 17:56:36 10° W 18:01:57 36° NNW 18:04:16 14° NE
SL-16 R/B 3.6 18:03:55 10° SE 18:07:44 19° E 18:09:56 15° ENE
Atlas Centaur 2 4.1 18:01:18 10° WSW 18:08:19 40° S 18:16:04 10° ESE
Shenzhou-11 Module 2.4 18:06:35 10° W 18:09:13 42° N 18:10:38 21° NE
Nadezhda 4 Rocket 4.0 18:04:14 10° S 18:10:29 69° E 18:16:47 10° NNE
Cosmos 2333 Rocket 3.0 18:05:08 10° SW 18:10:43 53° WNW 18:16:22 10° NNE
Cosmos 1992 Rocket 4.3 18:07:02 10° N 18:11:59 41° ENE 18:16:55 10° SE
RESURS DK-1 3.1 18:08:15 10° SW 18:12:17 53° WNW 18:16:20 10° NNE
STARLINK-46 4.3 18:10:01 10° W 18:12:18 24° NNW 18:14:04 14° NNE
SL-8 R/B 4.0 18:08:35 10° WNW 18:13:23 71° SW 18:18:11 10° SE
Cosmos 1908 Rocket 4.3 18:11:08 10° NNE 18:15:04 31° ENE 18:18:56 10° SE
ISS -2.4 18:13:19 10° NNW 18:16:07 24° NNE 18:17:00 21° NE
Meteor 1-11 Rocket 3.8 18:10:10 10° N 18:16:10 75° E 18:22:06 10° SSE
COSMO-SKYMED 1 2.9 18:12:44 10° NNE 18:16:52 42° E 18:20:59 10° S
Meteor 1-27 Rocket 3.7 18:12:44 10° S 18:18:25 81° E 18:24:15 10° N
Cosmos 1812 2.8 18:14:47 10° S 18:18:38 80° W 18:22:30 10° N
STARLINK-60 3.7 18:16:16 10° SSW 18:19:27 40° SE 18:20:54 25° E
Cosmos 2237 Rocket 2.2 18:14:27 10° SSW 18:20:06 69° ESE 18:25:46 10° NNE
YAOGAN 1 3.4 18:19:23 10° SE 18:23:01 27° ENE 18:26:39 10° NNE
USA 267 3.7 18:17:31 10° SE 18:24:00 65° SW 18:30:31 10° NW
BREEZE-M DEB (TANK) 2.8 18:22:40 10° NW 18:26:49 30° NNE 18:27:29 27° NE
ATLAS 3B R/B 3.7 18:25:23 10° NW 18:31:49 48° WSW 18:38:25 10° S
Cosmos 2026 Rocket 4.2 18:27:36 10° SSE 18:33:18 44° E 18:39:00 10° NNE
NOAA 12 4.2 18:29:30 10° S 18:34:49 80° WSW 18:40:08 10° NNW
Cosmos 2219 Rocket 3.7 18:32:32 10° WSW 18:37:33 33° WNW 18:42:37 10° N
Okean 1-7 3.3 18:36:26 10° SSE 18:40:31 44° E 18:42:13 29° NE
SKYMED 3 4.4 18:36:43 10° NNE 18:41:04 81° ESE 18:45:24 10° S
Cosmos 1733 Rocket 4.1 18:37:33 10° NNW 18:41:45 47° W 18:45:57 10° SSW
Cosmos 1536 2.8 18:38:34 10° N 18:42:37 86° W 18:46:36 10° S
CZ-4 R/B 1.3 18:40:09 10° SSE 18:44:00 57° ENE 18:47:51 10° N
Cosmos 1500 4.4 18:41:25 10° NNW 18:45:01 43° W 18:48:34 10° SSW
Cosmos 1980 4.1 18:44:52 10° SW 18:50:27 63° WNW 18:55:38 12° NNE
FALCON 9 DEB 3.1 18:48:42 10° SW 18:52:09 65° SE 18:52:17 64° ESE
Cosmos 1190 Rocket 4.5 18:48:00 10° SSE 18:52:43 36° E 18:52:51 36° E
YAOGAN 6 2.6 18:51:24 10° S 18:54:54 74° W 18:58:27 10° NNW
Lacrosse 5 rocket 3.0 18:51:56 10° W 18:55:38 28° NW 18:57:26 20° N
Cosmos 1627 Rocket 4.3 18:50:12 10° S 18:56:17 75° E 19:02:24 10° N
Cosmos 2297 4.2 18:51:51 10° N 18:56:47 35° NE 18:56:47 35° NE
CSL-04 Rocket 3.5 18:55:44 10° SSE 19:00:57 69° ENE 19:06:13 10° N
Aureole 1 Rocket 2.5 18:58:53 10° SSW 19:01:33 60° WSW 19:01:33 60° WSW
Okean 1 4.2 18:59:24 10° S 19:01:57 35° SSE 19:01:57 35° SSE
SKYMED 2 4.3 19:00:50 10° N 19:05:01 53° WNW 19:09:14 10° SSW
SL-4 R/B 3.9 19:03:45 10° NW 19:06:27 18° NNW 19:06:39 18° N
STARLINK-52 3.8 19:06:31 10° SW 19:09:17 52° SSW 19:09:17 52° SSW
Cosmos 292 Rocket 3.6 19:06:40 10° NNW 19:11:34 81° ENE 19:15:16 17° SSE
CSL-04 Debris 4.1 19:07:51 10° SSE 19:13:19 90° ENE 19:18:48 10° NNW
Cosmos 1703 Rocket 4.2 19:12:46 10° SSW 19:17:08 56° W 19:19:58 21° N
STARLINK-29 4.1 19:14:42 10° SW 19:17:18 47° WSW 19:17:18 47° WSW
OAO 3 Rocket 3.8 19:24:40 10° WSW 19:28:54 47° S 19:28:54 47° S
Cosmos 1666 4.4 19:26:23 10° NNW 19:29:43 31° W 19:33:01 10° SSW
Cosmos 1174 4.3 19:24:53 10° SSW 19:30:07 79° WSW 19:30:07 79° WSW
NOAA 11 4.2 19:27:23 10° S 19:32:50 81° WSW 19:38:20 10° NNW
OAO 2 Rocket 3.8 19:30:16 10° WSW 19:34:52 51° SSW 19:34:52 51° SSW
Cosmos 614 Rocket 4.1 19:33:41 10° SSW 19:38:45 68° WNW 19:38:56 68° NW
Cosmos 2278 Rocket 4.0 19:35:47 10° NW 19:40:36 30° WSW 19:45:25 10° SSW
Meteor 1-19 Rocket 4.5 19:38:15 10° S 19:42:36 56° S 19:42:36 56° S
Cosmos 407 Rocket 3.7 19:39:00 10° SSW 19:44:07 64° WNW 19:44:10 64° WNW
Cosmos 1140 Rocket 4.4 19:44:05 10° SSW 19:47:21 41° SSW 19:47:21 41° SSW
SL-16 R/B 2.6 19:45:44 10° SW 19:51:18 58° WNW 19:51:52 55° NW
ISS -0.4 19:49:45 10° WNW 19:49:55 11° WNW 19:49:55 11° WNW
Cosmos 1553 Rocket 4.3 19:57:41 10° NNW 20:03:58 64° W 20:10:17 10° S
Cosmos 2237 Rocket 4.5 20:00:48 10° W 20:04:42 19° NW 20:07:40 13° NNW
